Regional Weather Roundup
Issued by NWS Wilmington, NC

Home | Current Version | Previous Version | Text Only | Print | Product List | Glossary On
Versions: 1 2 3 4 5 6 7 8 9 10 11 12 13 14 15 16 17 18 19 20 21 22 23 24 25 26 27 28 29 30 31 32 33 34 35 36 37 38 39 40 41 42 43 44 45 46 47 48 49 50
000
ASUS42 KILM 092312
RWRILM
RWRILM
REGIONAL HOURLY WEATHER ROUNDUP
NATIONAL WEATHER SERVICE WILMINGTON NC
600 PM EST FRI DEC 09 2016

NOTE: "FAIR" INDICATES FEW OR NO CLOUDS BELOW 12,000 FEET WITH NO
SIGNIFICANT WEATHER AND/OR OBSTRUCTIONS TO VISIBILITY.

...............WFO WILMINGTON COUNTY WARNING AREA...............

......COASTAL NC AND SC COUNTIES......

CITY           SKY/WX    TMP DP  RH WIND       PRES   REMARKS
WILMINGTON     CLEAR     38  22  52 N6        30.41R WCI  33
N MYRTLE BEACH PTCLDY    38  25  59 N3        30.41R
MYRTLE BEACH   CLEAR     43  21  42 N6        30.43R

......INLAND NC AND SC COUNTIES.......

CITY           SKY/WX    TMP DP  RH WIND       PRES   REMARKS
LUMBERTON      CLEAR     37  22  54 N5        30.41R WCI  33
ELIZABETHTOWN  CLEAR     38  22  52 CALM      30.41R
WHITEVILLE     CLEAR     38  23  53 CALM      30.41R
FLORENCE       CLEAR     39  20  46 N6        30.42R WCI  35
DARLINGTON     CLEAR     36  23  59 CALM      30.43R
KINGSTREE      FAIR      36  23  60 CALM      30.42R
HARTSVILLE     FAIR      34  21  60 CALM      30.42R
BENNETTSVILLE  FAIR      41  23  48 NW6       30.42R
CONWAY         FAIR      34  28  80 CALM      30.42R
GEORGETOWN     NOT AVBL
MARION         FAIR      37  21  52 N3        30.42R

....................REST OF NORTH CAROLINA......................

.........EASTERN NC.........

CITY           SKY/WX    TMP DP  RH WIND       PRES   REMARKS
CAPE HATTERAS  CLEAR     39  20  46 NW6       30.38R WCI  35
JACKSONVILLE   CLEAR     34  22  61 N3        30.42R
MOREHEAD CITY  CLEAR     36  21  54 N7        30.41R WCI  30
KENANSVILLE    CLEAR     36  18  48 N5        30.42R WCI  32
NEW BERN       CLEAR     36  20  52 NW5       30.42R WCI  32
ELIZABETH CITY CLEAR     33  17  51 NW8       30.40R WCI  26

.........CENTRAL NC.........

CITY           SKY/WX    TMP DP  RH WIND       PRES   REMARKS
RALEIGH DURHAM PTCLDY    35  12  38 N3        30.42R
ROCKY MOUNT    CLEAR     33  19  56 NW3       30.42R
ROANOKE RAPIDS NOT AVBL
FAYETTEVILLE   CLEAR     35  18  49 N5        30.41R WCI  31
HOFFMAN        CLEAR     33  21  61 NW3       30.41R

.........WESTERN NC.........

CITY           SKY/WX    TMP DP  RH WIND       PRES   REMARKS
CHARLOTTE      CLEAR     37  10  32 NW5       30.41R WCI  33
GREENSBORO     CLEAR     34  14  43 N6        30.41R WCI  29
HICKORY        NOT AVBL
BOONE          NOT AVBL
ASHEVILLE      NOT AVBL

.....................REST OF SOUTH CAROLINA.....................

.........EASTERN SC.........

CITY           SKY/WX    TMP DP  RH WIND       PRES   REMARKS
CHARLESTON     CLEAR     41  21  44 N5        30.42R
BEAUFORT MCAS  CLEAR     42  25  50 N7        30.42R
HILTON HEAD    CLEAR     46  21  36 N9        30.42R

.........CENTRAL SC.........

CITY           SKY/WX    TMP DP  RH WIND       PRES   REMARKS
COLUMBIA       CLEAR     43  21  41 CALM      30.42R
ORANGEBURG     CLEAR     42  21  43 CALM      30.42R
SUMTER SHAW    CLEAR     40  18  40 N6        30.40R

.........WESTERN SC.........

CITY           SKY/WX    TMP DP  RH WIND       PRES   REMARKS
GREENVILLE     NOT AVBL
ROCK HILL      CLEAR     34  16  47 N7        30.41R WCI  28
ANDERSON       CLEAR     39  21  48 SE3       30.40R
CLEMSON        NOT AVBL
GREENWOOD      CLEAR     37  17  44 CALM      30.43R


...................COASTAL AND OFFSHORE REPORTS..................

................LOCAL PIERS AND NC RESERVE................


STATION/POSITION TIME  SKY/WX   TEMP    WIND        PRES    VSBY
                                AIR SEA DIR/SP/G
                 (UTC)          (F)     (DEG/KT/KT) (MB)    (MI)
JOHNY MRCER PIER 2248            41 61  350/  6/ 10 1028.3R
NC RESRV MASNBRO 2145            42     360/  1     1028.0
OCEAN CREST PIER NOT AVBL
SPRINGMAID  PIER NOT AVBL


................COASTAL AND OFFSHORE BUOYS................


STATION/POSITION TIME  SKY/WX   TEMP    WIND        PRES    VSBY
                                AIR SEA DIR/SP/G
                 (UTC)          (F)     (DEG/KT/KT) (MB)    (MI)
DIMNDSHOAL 41025 2250            43 76  350/ 16/ 21 1028.2R
WVE H/P(F/S)=  5/ 9 SWL H/P/D(F/S/D)=  5/ 60/ 9

CAPE LOOKOUT     2300            40     340/ 14/ 17 1029.0R
ONSLOW BAY 41036 NOT AVBL
ONSLOW BAY 41064 2208            45 69  350/ 14/ 21 1028.6R
ONSLOW BAY 41159 2243               69                N/A
WVE H/P(F/S)=  3/ 3

5SE WRITBC 41038 2208            41 61  350/ 16/ 25 1028.6R
MASNBO INL 41110 2259               61                N/A
WVE H/P(F/S)=  2/11

WILM HARBR 41108 2256               60                N/A
WVE H/P(F/S)=  2/ 3

27SE WRITB 41037 2208            46 69  350/ 16/ 23 1028.1R
FRYING PAN 41013 2250            47 72  350/ 14/ 19 1028.7R
WVE H/P(F/S)=  3/ 6 SWL H/P/D(F/S/D)=  2/ 80/ 8

SUNST NRSH 41024 2208            45 59  350/ 12/ 16 1028.6R
CAPRS NRSH 41029 2208            48 60  360/ 12/ 16 1028.5R
EDISTO     41004 2250            50 72  350/ 14/ 17 1028.2R
WVE H/P(F/S)=  4/ 6 SWL H/P/D(F/S/D)=  2/ 60/ 7



..........OFFSHORE BUOYS BEYOND 100 NM OFFSHORE...........
.....IN A TRIANGLE---HAT TO BERMUDA TO BAHAMAS TO HAT.....


STATION/POSITION TIME  SKY/WX   TEMP    WIND        PRES    VSBY
                                AIR SEA DIR/SP/G
                 (UTC)          (F)     (DEG/KT/KT) (MB)    (MI)
150E HAT   41001 NOT AVBL
W BERMUDA  41048 2250            66 73  300/ 17/ 21 1020.8R
WVE H/P(F/S)=  7/ 9 SWL H/P/D(F/S/D)=  5/330/ 9

ATLANTIC S 41049 2250            74 76  360/  2/  2 1019.9R
WVE H/P(F/S)=  5/ 9 SWL H/P/D(F/S/D)=  5/330/ 9

E BAHAMAS  41046 2250            76 79  300/  2/  6 1019.8R
WVE H/P(F/S)=  4/ 9 SWL H/P/D(F/S/D)=  3/ 9

NE BAHAMAS 41047 2250            75 78  360/ 16/ 19 1020.5R
WVE H/P(F/S)=  3/12 SWL H/P/D(F/S/D)=  2/ 30/12

120E CANVRL41010 NOT AVBL

END



USA.gov is the U.S. government's official web portal to all federal, state and local government web resources and services.